Weather History for Destin, FL

Change the Weather History Date:

Wednesday, March 6, 2013

  Actual Average Record
Temperature  
Mean Temperature 52 °F -  
Max Temperature 61 °F 64 °F 70 °F (1998)
Min Temperature 44 °F 49 °F 37 °F (2002)
Degree Days  
Heating Degree Days 12    
Growing Degree Days 2 (Base 50)    
Moisture  
Dew Point 29 °F    
Average Humidity 45    
Maximum Humidity 69    
Minimum Humidity 24    
Precipitation  
Precipitation 0.00 in - - ()
Sea Level Pressure  
Sea Level Pressure 30.19 in    
Wind  
Wind Speed 12 mph (NNW)    
Max Wind Speed 20 mph    
Max Gust Speed 25 mph    
Visibility 10 miles    
Events      
Averages and records for this station are not official NWS values.
T = Trace of Precipitation, MM = Missing Value Source: NWS Daily Summary

Daily Weather History Graph

Daily Weather History Graph

Search for Another Location

Airport:

Trip Planner

Search our weather history database for the weather conditions in past years. The results will help you decide how hot, cold, wet, or windy it might be!

Date:

Astronomy

Mar. 06, 2013 Rise Set
Actual Time 6:06 AM CST 5:48 PM CST
Civil Twilight 5:42 AM CST 6:12 PM CST
Nautical Twilight 5:14 AM CST 6:40 PM CST
Astronomical Twilight 4:46 AM CST 7:08 PM CST
Moon 1:57 AM CST (3/6) 12:46 PM CST (3/6)
Length of Visible Light 12h 30m
Length of Day
11h 42m
Waning Crescent, 29% of the Moon is Illuminated
Mar 6
Waning Crescent
Mar 11
New
Mar 19
First Quarter
Mar 27
Full
Apr 2
Last Quarter

Hourly Weather History & Observations

Time (CST) Temp. Windchill Dew Point Humidity Pressure Visibility Wind Dir Wind Speed Gust Speed Precip Events Conditions
12:53 AM 48.9 °F - 39.0 °F 69% 30.12 in 10.0 mi NNW 10.4 mph - N/A   Clear
1:53 AM 48.9 °F - 37.9 °F 66% 30.12 in 10.0 mi NW 10.4 mph - N/A   Clear
2:53 AM 48.9 °F - 37.0 °F 64% 30.12 in 10.0 mi NW 11.5 mph 19.6 mph N/A   Clear
3:53 AM 48.0 °F - 33.1 °F 56% 30.14 in 10.0 mi NNW 15.0 mph - N/A   Clear
4:53 AM 46.0 °F 41.0 °F 33.1 °F 61% 30.17 in 10.0 mi NW 10.4 mph - N/A   Clear
5:53 AM 45.0 °F 39.3 °F 30.0 °F 56% 30.19 in 10.0 mi NW 11.5 mph 21.9 mph N/A   Clear
6:53 AM 44.1 °F 37.4 °F 28.0 °F 53% 30.22 in 10.0 mi NNW 13.8 mph 23.0 mph N/A   Clear
7:53 AM 45.0 °F 37.9 °F 27.0 °F 49% 30.22 in 10.0 mi NNW 16.1 mph - N/A   Clear
8:53 AM 48.9 °F - 24.1 °F 38% 30.22 in 10.0 mi NNW 13.8 mph - N/A   Clear
9:53 AM 51.1 °F - 21.9 °F 32% 30.22 in 10.0 mi NNW 16.1 mph 23.0 mph N/A   Clear
10:53 AM 54.0 °F - 21.9 °F 29% 30.21 in 10.0 mi NW 13.8 mph 24.2 mph N/A   Clear
11:53 AM 57.0 °F - 21.0 °F 25% 30.19 in 10.0 mi NNW 19.6 mph 25.3 mph N/A   Clear
12:53 PM 59.0 °F - 23.0 °F 25% 30.16 in 10.0 mi NW 9.2 mph 24.2 mph N/A   Clear
1:53 PM 60.1 °F - 23.0 °F 24% 30.14 in 10.0 mi NW 16.1 mph 23.0 mph N/A   Clear
2:53 PM 61.0 °F - 25.0 °F 25% 30.14 in 10.0 mi NNW 15.0 mph 20.7 mph N/A   Clear
3:53 PM 60.1 °F - 26.1 °F 27% 30.14 in 10.0 mi NNW 15.0 mph - N/A   Clear
4:53 PM 57.0 °F - 27.0 °F 32% 30.14 in 10.0 mi North 12.7 mph - N/A   Clear
5:53 PM 55.0 °F - 28.9 °F 37% 30.18 in 10.0 mi NNW 11.5 mph - N/A   Clear
6:53 PM 53.1 °F - 30.9 °F 43% 30.21 in 10.0 mi NNW 11.5 mph - N/A   Clear
7:53 PM 50.0 °F - 30.9 °F 48% 30.22 in 10.0 mi North 12.7 mph - N/A   Clear
8:53 PM 48.9 °F - 30.9 °F 50% 30.23 in 10.0 mi NNW 10.4 mph - N/A   Clear
9:53 PM 48.0 °F - 30.9 °F 52% 30.25 in 10.0 mi NNW 10.4 mph - N/A   Clear
10:53 PM 46.9 °F - 30.9 °F 54% 30.25 in 10.0 mi NNW 10.4 mph - N/A   Clear
11:53 PM 45.0 °F 40.1 °F 30.9 °F 58% 30.26 in 10.0 mi NNW 9.2 mph - N/A   Clear